一网星座-0048星 (ONEWEB-0048 )

导读 | 豆包AI

ONEWEB-0048是英国OneWeb星座的成员卫星,于2020年2月6日发射。它运行在近地轨道,属于OneWeb全球宽带卫星组网的首批卫星之一,旨在为全球电信运营商提供基础设施支撑,填补偏远地区网络覆盖空白。作为OneWeb低轨互联网星座的早期部署节点,它见证了OneWeb从初期组网到后续完成全球覆盖的发展历程,是英国低轨卫星通信布局的重要组成部分。

基本信息
目录编号:
45153
目录名称:
ONEWEB-0048
国际标识:
2020-008Y
轨道中心:
EARTH
卫星名称:
一网星座-0048星
卫星全名:
一网星座-0048星 (ONEWEB-0048 )
卫星状态:
在轨 (已飞行2228 天)
发射日期:
2020-02-06 UTC
国别 :
英国 (GB)
星等 :
--
轨道信息
数据来源 国际轨道数据 AOE轨道数据
星历时间 2026-03-13T17:24:15+0800
16小时前
查看轨道信息
2026-03-12T15:00:00+0800
1天前
查看轨道信息
半长轴 7599.849km 7599.865km
偏心率 0.0001904 0.0001332
轨道倾角 87.877° 87.879°
近地点辐角 86.761° 68.832°
升交点赤经 55.360° 55.582°
平近点角 273.373° 144.306°
近地点 1220.264km 1220.715km
远地点 1223.16km 1222.741km
周期 109.892分钟 109.893分钟
每日圈数 13.103744 13.103701
详细信息
平衡模式:
三轴稳定
覆盖范围:
全球
运营商:
一网卫星公司
运营商所在国:
英国
制造商(研发单位):
一网卫星公司
制造商所在国:
英国
使用方式:
暂无
卫星简介
OneWeb卫星网络由648颗重约125公斤的微型卫星组成,运行在1200公里的轨道上。 每颗卫星都能够提供至少每秒8千兆位的吞吐量,以使用其高吞吐量的Ku频段有效载荷为家庭和移动平台提供互联网接入。该卫星仍在工作。
2D轨道图
3D轨道图
轨道高度分析图
轨道倾角分析图
轨道综合分析图
查看轨道综合分析图